DO2KZW-13 Weather Reports


Display with metric or nautical units.
time (UTC)temp
F
wind
direction
speed
MPH
gust
MPH
rain 1hr
in
rain 24hr
in
rain mn
in
humidity
%
barometer
mb
20210623233526 63 360 0.0 0.0 0.00 0.00 0.00 72 1016.4
20210623223526 65 360 0.0 0.0 0.00 0.00 0.00 66 1016.4
20210623213526 66 360 0.0 0.0 0.00 0.00 0.00 69 1015.4
20210623203526 67 360 0.0 0.0 0.00 0.00 0.00 65 1016.4
20210623193526 67 360 0.0 0.0 0.00 0.00 0.00 65 1014.4
20210623183527 68 360 0.0 0.0 0.00 0.00 0.00 62 1014.4
20210623173526 69 360 0.0 0.0 0.00 0.00 0.00 58 1015.4
20210623163526 70 360 0.0 0.0 0.00 0.00 0.00 54 1015.4
20210623153527 72 360 0.0 0.0 0.00 0.00 0.00 48 1014.4
20210623143527 76 360 0.0 0.0 0.00 0.00 0.00 34 1015.4
20210623133526 80 360 0.0 0.0 0.00 0.00 0.00 30 1015.4
20210623123526 80 360 0.0 0.0 0.00 0.00 0.00 30 1015.4
20210623113528 78 360 0.0 0.0 0.00 0.00 0.00 33 1015.4
20210623103530 80 360 0.0 0.0 0.00 0.00 0.00 31 1015.4
20210623093531 80 360 0.0 0.0 0.00 0.00 0.00 34 1015.4
20210623083527 77 360 0.0 0.0 0.00 0.00 0.00 42 1016.4
20210623073528 73 360 0.0 0.0 0.00 0.00 0.00 46 1016.4
20210623063527 71 360 0.0 0.0 0.00 0.00 0.00 54 1015.4
20210623053527 68 360 0.0 0.0 0.00 0.00 0.00 66 1015.4
20210623043527 64 360 0.0 0.0 0.00 0.00 0.00 71 1015.4
20210623033527 63 360 0.0 0.0 0.00 0.00 0.00 72 1014.4
20210623023527 64 360 0.0 0.0 0.00 0.00 0.00 71 1014.4
20210623013528 64 360 0.0 0.0 0.00 0.00 0.00 70 1014.4
20210623003527 65 360 0.0 0.0 0.00 0.00 0.00 67 1015.4